THOR AGENA D R/B, 2825

Orbit data source: Space-Track

THOR AGENA D R/B, 2825 is space debris in LEO originally from a launch on Wed, 31 May 1967 UTC launched from the Air Force Western Test Range (AFWTR). Debris objects in space refer to the collection of defunct objects orbiting the Earth. Examples of debris include non-operational satellites, rocket bodies, and fragments generated from explosions, collisions, or faulty payload assembly.

Loading next visibility...
Identifier
2825, 1967-053B
Orbit
LEO
Country
Flag of USUS
Related business
Manufacturer
LMSC
Mission
Spacecraft
Bus & Motor
AGENA D, Unknown motor
Mass
600 kg wet, 600 kg dry
Launch date (UTC)
1967-05-31 (58 years ago)
Launch vehicle
Unknown
Launch site
Air Force Western Test Range (AFWTR)
Object type
Payload
Rocket body
Debris
Shape & HBR
Unknown
Radar Cross Section
Large (>1 m²)

Expand to show TLE details & history
Last TLE update: 7 hours ago

TLE from 7 hours ago
0 THOR AGENA D R/B
1  2825U 67053B   25311.66125214  .00000123  00000-0  12529-3 0  9995
2  2825  69.9704 189.1140 0004266 107.3672 252.7901 13.97671567 61142
Epoch: 2025-11-07T15:52Z
TLE epoch observation values (Epoch: 2025-11-07T15:52:12.184Z)
Latitude
-0.00006°
Longitude
-96.0388°
Altitude
905.102 km
Speed
7.399 km/s
True Right ascension
12h 36m 27s
True Declination
0° 00' 00"
Sunlit
Object was in daylight at epoch
Visualization orbit readout
Latitude
Unknown
Longitude
Unknown
Altitude
Unknown
Speed
Unknown
Apparent Right ascension
Unknown
Apparent Declination
Unknown
Sunlit
N/A
Visualization observer readout
Local Sidereal Time
19:22:14
Azimuth
Unknown
Elevation
Unknown
Doppler factor
Unknown
Orbital elements
Apogee altitude
903.019 km
Perigee altitude
896.809 km
Semi-major axis
7,278.051 km
Eccentricity
0.00043
Inclination
69.9704°
RAAN
189.114°
Arg. of periapsis
107.3672°
True anomaly
252.74341°
Mean anomaly
252.7901°
Eccentric anomaly
252.76675°
Mean motion
3.49559 °/min
Orbital period
102.99 mins
BSTAR
0.00012529
Loading maneuver chart data...
Computing Atmospheric mass density...
Loading historical data...
Loading historical data...
Loading historical data...
Loading historical data...
Loading historical data...
Loading historical data...
Loading historical data...

Documentation

Showing up to 5 results
|